Starlink 34412

operational
NORAD ID: 66132 Int'l Des: 2025-237 Owner: SPXS Country: US Constellation: starlink
LEOCIRCULAR

Starlink 34412について

説明を読み込み中...

リアルタイム位置

3D地球を読み込み中...

次回通過

高度履歴

Altitude vs Time

uPlot chart will show altitude changes over time

軌道要素

1 66132U 25237U 25350.91670139 -.00001424 00000-0 -25633-4 0 9994
2 66132 53.1598 67.7495 0001005 73.9090 15.3857 15.39622050 6034
Epoch: Dec 16, 2025 • Age: 12 hours

現在のステータス

高度 453.1 km
速度 7.65 km/s
衛星直下点 53.22°N, 92.6°W
打ち上げ日 Oct 22, 2025
運用期間 0.1 years
タイプ internet

技術仕様

分類 Payload
質量 575.00 kg
乾燥質量 530.00 kg
総質量 575.00 kg
長さ 0.30 m
直径 4.10 m
スパン 29.00 m
形状 Box + pan
製造者 SPXS
バスタイプ Starlink V2MO
フェーズステータス In Orbit
所有者/国 SPXS/US

大規模コンステレーション

Loading constellations...